Epoch 1999 Mar. 3.0 TT = JDT 2451240.5
T 1999 Feb. 18.02221 TT MPC
q 1.6547739 (2000.0) P Q
n 0.07117879 Peri. 173.09513 -0.95511526 -0.28840735
a 5.7663677 Node 349.37674 +0.25121144 -0.66753088
e 0.7130301 Incl. 21.52734 +0.15699572 -0.68645737
P 13.8
From 121 observations 1999 Feb. 20-2012 Dec. 25, mean residual 0".8.
Finding Charts
Magnitudes Graph
m1 = 15.0 + 5 log d + 15.0 log r
The orbital elements are published on M.P.E.C. 2012-Y29.
The charts are made with StellaNavigator Ver.2.0 for Windows (AstroArts / ASCII).
The magnitudes graphs are made with Comet for Windows.
Copyright(C) Seiichi Yoshida (comet@aerith.net). All rights reserved.